Date String (YYYY-MM-DD hh:mm:ss) UTC,Instrument flags,Ambient pressure (hPa),Sample flow (lpm),Bypass flow (lpm),Sample temperature (°C),Ambient temperature (°C),ASC tube jacket temperature (°C),LED temperature (°C),Box temperature (°C),Sample RH (%),Span deviation,Mass concentration (μg/m³),Mass concentration (μg/m³),Mass concentration (μg/m³)
DateTimeUTC,F1_M11,P_M11,Q1_M11,Q2_M11,T1_M11,T2_M11,T3_M11,T4_M11,T5_M11,U1_M11,ZSPAN_M11,X0_M11,X2_M11,X1_M11
2021-09-13 14:00:00,,0827.2,5.00,0.00,30.0,29.2,00.0,39.0,31.8,24.2,0000.0,0012.12,0005.11,0004.01
2021-09-13 14:01:00,,0827.0,4.99,0.00,30.0,29.2,00.0,39.0,31.8,24.5,0000.0,0012.45,0005.11,0004.03
2021-09-13 14:02:00,,0827.0,5.00,0.00,30.0,29.3,00.0,39.0,31.8,23.8,0000.2,0012.62,0005.17,0004.05
2021-09-13 14:03:00,,0827.1,5.00,0.00,30.1,29.3,00.0,39.0,31.9,23.7,0000.5,0012.19,0005.21,0004.07
2021-09-13 14:04:00,,0827.2,5.00,0.00,30.1,29.3,00.0,39.1,31.9,24.0,0000.6,0011.77,0005.24,0004.09
2021-09-13 14:05:00,,0827.2,4.99,0.00,30.1,29.3,00.0,39.1,31.9,24.7,0001.1,0012.03,0005.31,0004.11
2021-09-13 14:06:00,,0827.4,5.00,0.00,30.1,29.3,00.0,39.1,31.9,25.2,0001.3,0012.15,0005.39,0004.14
2021-09-13 14:07:00,,0827.4,5.01,0.00,30.1,29.3,00.0,39.1,31.9,25.4,0001.7,0012.03,0005.42,0004.19
2021-09-13 14:08:00,,0827.4,4.99,0.00,30.1,29.3,00.0,39.2,31.9,25.6,0001.5,0011.81,0005.46,0004.23
2021-09-13 14:09:00,,0827.4,5.00,0.00,30.2,29.3,00.0,39.2,31.9,25.9,0001.1,0011.69,0005.49,0004.27
2021-09-13 14:10:00,,0827.3,5.01,0.00,30.2,29.4,00.0,39.2,31.9,25.7,0000.3,0011.60,0005.53,0004.30
2021-09-13 14:11:00,,0827.2,4.99,0.00,30.2,29.4,00.0,39.2,31.9,25.5,-000.2,0011.81,0005.59,0004.34
2021-09-13 14:12:00,,0827.2,5.01,0.00,30.2,29.4,00.0,39.2,32.0,25.7,-000.4,0011.68,0005.61,0004.38
2021-09-13 14:13:00,,0827.2,5.00,0.00,30.2,29.4,00.0,39.2,32.0,25.9,0000.1,0011.51,0005.63,0004.41
2021-09-13 14:14:00,,0827.2,5.00,0.00,30.2,29.4,00.0,39.2,32.0,26.1,0000.1,0012.37,0005.70,0004.45
2021-09-13 14:15:00,,0827.3,5.00,0.00,30.2,29.4,00.0,39.3,32.0,25.9,0000.1,0012.66,0005.70,0004.46
2021-09-13 14:16:00,,0827.2,5.01,0.00,30.2,29.4,00.0,39.3,32.0,25.9,-000.3,0012.89,0005.70,0004.48
2021-09-13 14:17:00,,0827.2,5.00,0.00,30.2,29.4,00.0,39.3,32.0,25.9,-000.3,0013.83,0005.67,0004.48
2021-09-13 14:18:00,,0827.3,4.99,0.00,30.3,29.4,00.0,39.3,32.0,25.7,0000.0,0013.91,0005.66,0004.47
2021-09-13 14:19:00,,0827.2,5.00,0.00,30.3,29.4,00.0,39.3,32.0,25.8,0000.2,0014.09,0005.64,0004.47
2021-09-13 14:20:00,,0827.2,5.00,0.00,30.3,29.4,00.0,39.3,32.0,25.8,0000.1,0013.82,0005.57,0004.45
2021-09-13 14:21:00,,0827.2,5.01,0.00,30.3,29.4,00.0,39.3,32.0,25.7,0000.8,0013.91,0005.57,0004.45
2021-09-13 14:22:00,,0827.2,4.99,0.00,30.3,29.4,00.0,39.4,32.0,25.6,0001.2,0013.71,0005.51,0004.42
2021-09-13 14:23:00,,0827.3,5.00,0.00,30.3,29.4,00.0,39.4,32.0,25.6,0001.1,0013.63,0005.50,0004.39
2021-09-13 14:24:00,,0827.3,5.00,0.00,30.3,29.4,00.0,39.4,32.0,25.6,0000.6,0013.78,0005.53,0004.39
2021-09-13 14:25:00,,0827.3,5.00,0.00,30.3,29.5,00.0,39.4,32.0,25.6,0000.8,0013.08,0005.45,0004.38
2021-09-13 14:26:00,,0827.3,5.01,0.00,30.3,29.5,00.0,39.4,32.1,25.5,0000.5,0013.32,0005.45,0004.37
2021-09-13 14:27:00,,0827.3,5.01,0.00,30.3,29.5,00.0,39.4,32.1,25.6,0000.8,0013.04,0005.41,0004.34
2021-09-13 14:28:00,,0827.3,4.99,0.00,30.4,29.5,00.0,39.4,32.1,25.6,0000.2,0011.83,0005.39,0004.32
2021-09-13 14:29:00,,0827.3,5.01,0.00,30.4,29.5,00.0,39.4,32.1,25.5,0000.0,0012.71,0005.45,0004.32
2021-09-13 14:30:00,,0827.4,4.99,0.00,30.4,29.6,00.0,39.4,32.1,25.8,0000.0,0012.40,0005.43,0004.29
2021-09-13 14:31:00,,0827.4,5.01,0.00,30.4,29.6,00.0,39.4,32.1,25.5,0000.1,0012.43,0005.42,0004.28
2021-09-13 14:32:00,,0827.4,5.00,0.00,30.4,29.6,00.0,39.5,32.1,25.5,0001.5,0012.39,0005.39,0004.28
2021-09-13 14:33:00,,0827.4,4.99,0.00,30.4,29.6,00.0,39.5,32.1,25.2,0000.8,0012.66,0005.40,0004.27
2021-09-13 14:34:00,,0827.5,5.01,0.00,30.4,29.6,00.0,39.5,32.1,25.5,0000.0,0012.48,0005.35,0004.24
2021-09-13 14:35:00,,0827.5,4.99,0.00,30.4,29.6,00.0,39.5,32.1,25.3,0000.0,0012.23,0005.26,0004.20
2021-09-13 14:36:00,,0827.5,4.99,0.00,30.4,29.6,00.0,39.5,32.1,25.2,0000.0,0012.13,0005.26,0004.18
2021-09-13 14:37:00,,0827.6,5.01,0.00,30.4,29.6,00.0,39.5,32.1,25.4,0000.0,0011.59,0005.21,0004.16
2021-09-13 14:38:00,,0827.8,4.98,0.00,30.4,29.7,00.0,39.5,32.2,25.5,0000.0,0011.41,0005.22,0004.15
2021-09-13 14:39:00,,0827.7,5.00,0.00,30.5,29.7,00.0,39.5,32.2,25.8,0000.0,0011.41,0005.19,0004.13
2021-09-13 14:40:00,,0827.7,5.01,0.00,30.5,29.7,00.0,39.5,32.2,26.1,0000.0,0010.38,0005.11,0004.12
2021-09-13 14:41:00,,0827.7,5.00,0.00,30.5,29.7,00.0,39.5,32.2,26.0,0000.0,0010.61,0005.11,0004.11
2021-09-13 14:42:00,,0827.7,5.00,0.00,30.5,29.7,00.0,39.6,32.3,25.6,0000.0,0011.29,0005.14,0004.11
2021-09-13 14:43:00,,0827.7,5.01,0.00,30.5,29.7,00.0,39.6,32.3,25.2,0000.0,0012.88,0005.13,0004.09
2021-09-13 14:44:00,,0827.6,5.00,0.00,30.5,29.7,00.0,39.6,32.3,25.1,0000.0,0012.70,0005.12,0004.08
2021-09-13 14:45:00,,0827.5,4.99,0.00,30.5,29.7,00.0,39.6,32.3,25.0,0000.1,0014.02,0005.17,0004.08
2021-09-13 14:46:00,,0827.5,5.01,0.00,30.5,29.7,00.0,39.6,32.3,25.2,0000.7,0014.58,0005.19,0004.10
2021-09-13 14:47:00,,0827.5,5.01,0.00,30.6,29.7,00.0,39.6,32.3,25.4,0000.6,0014.51,0005.23,0004.09
2021-09-13 14:48:00,,0827.5,4.99,0.00,30.6,29.7,00.0,39.6,32.3,25.1,0000.4,0014.48,0005.21,0004.07
2021-09-13 14:49:00,,0827.5,5.01,0.00,30.6,29.8,00.0,39.6,32.3,25.0,0000.7,0015.29,0005.20,0004.06
2021-09-13 14:50:00,,0827.5,5.01,0.00,30.6,29.8,00.0,39.7,32.3,24.3,0000.8,0016.25,0005.21,0004.06
2021-09-13 14:51:00,,0827.7,4.99,0.00,30.6,29.8,00.0,39.7,32.4,24.4,0000.7,0017.01,0005.22,0004.05
2021-09-13 14:52:00,,0827.7,4.99,0.00,30.6,29.8,00.0,39.7,32.3,24.6,0001.0,0016.99,0005.17,0004.03
2021-09-13 14:53:00,,0827.8,5.01,0.00,30.6,29.7,00.0,39.7,32.3,24.6,0000.3,0016.29,0005.10,0004.01
2021-09-13 14:54:00,,0827.9,4.99,0.00,30.5,28.1,00.0,39.7,31.9,24.8,0000.1,0015.03,0005.06,0003.99
2021-09-13 14:55:00,,0827.8,4.99,0.00,30.3,26.1,00.0,39.6,31.4,25.0,0000.2,0015.06,0005.02,0003.98
2021-09-13 14:56:00,,0827.8,5.00,0.00,30.2,25.8,00.0,39.5,31.3,25.0,0000.4,0014.65,0004.97,0003.95
2021-09-13 14:57:00,,0827.7,4.99,0.00,30.0,26.2,00.0,39.5,31.3,25.3,0000.7,0014.07,0004.92,0003.92
2021-09-13 14:58:00,,0827.7,5.00,0.00,30.0,26.8,00.0,39.4,31.4,25.1,0000.7,0014.11,0004.86,0003.90
2021-09-13 14:59:00,,0827.7,5.01,0.00,29.9,27.3,00.0,39.3,31.4,25.2,0000.8,0014.20,0004.87,0003.91
